2020-068G

Last updated on Thu Oct 29 2020 00:02:02 GMT+0000 (Coordinated Universal Time)

1 46492U 20068G 20302.56308039 .00001624 00000-0 12330-3 0 9997 2 46492 97.6694 235.7823 0019315 138.0381 222.2335 15.03476285 4498
UTC large
Height (km)
Speed (km/s)
/
Latitude / Longitude
Inclination (degrees)
Orbital Period (minutes)
Azimuth
Elevation
Range (km)
Doppler Factor

Next 0 passes for location: London (51.5072 / 0.1276)

Sorry there are no passes over London.